Flag for Denmark Weather past 2 weeks in Copenhagen, Denmark

Now
45 °F

Partly sunny.


Feels Like: 38 °F
Forecast: 41 / 48 °F
Wind: 13 mph from Southwest

Location: Koebenhavn-Kastrup Airport

Current Time: Dec 18, 2014 at 10:00:52 AM

Latest Report: Dec 18, 2014 at 9:20 AM


Visibility: N/A

Pressure: 29.59 "Hg

Humidity: 93%

Dew point: 43 °F

Location of CopenhagenLocation

Historic Weather in Copenhagen — Graph

°F

Copenhagen temperature yesterday

Maximum temperature yesterday: 41 °F (at 3:20 AM)
Minimum temperature yesterday: 37 °F (at 4:50 PM)
Average temperature yesterday: 39 °F

Past Weeks' High & Low Weather Summary

 TemperatureHumidityPressure
High46 °F (Dec 12, 4:20 PM)100% (Dec 6, 1:20 AM)30.30 "Hg (Dec 6, 1:20 AM)
Low32 °F (Dec 6, 8:50 PM)75% (Dec 3, 9:20 AM)28.97 "Hg (Dec 12, 4:20 PM)
Average40 °F88%29.79 "Hg
* Reported Dec 3 8:20 AM — Dec 18 8:50 AM, Copenhagen, Weather by CustomWeather, © 2014

Note: Actual official high and low records may vary slightly from our data, if they occured in-between our weather recording intervals... More about our weather records

Advertising

Copenhagen weather history for previous 24 hours

 ConditionsComfort  
Time TempWeatherWind HumidityBarometerVisibility
8:50 AM
Dec 18
43 °FPartly sunny.12 mph100%29.59 "HgN/A
8:20 AM43 °FPassing clouds.9 mph100%29.59 "Hg4 mi
7:50 AM43 °FFog.10 mph100%29.59 "Hg3 mi
7:20 AM43 °FFog.8 mph100%29.59 "Hg2 mi
6:55 AM43 °FFog.9 mph93%29.59 "Hg2 mi
6:20 AM43 °FPassing clouds.9 mph93%29.59 "Hg4 mi
5:50 AM41 °FPassing clouds.8 mph100%29.59 "Hg4 mi
5:20 AM41 °FPassing clouds.9 mph100%29.59 "Hg4 mi
4:20 AM41 °FPassing clouds.9 mph93%29.56 "Hg4 mi
3:50 AM39 °FPassing clouds.9 mph100%29.59 "Hg5 mi
3:20 AM39 °FPassing clouds.9 mph100%29.59 "Hg5 mi
2:50 AM39 °FPartly cloudy.7 mph100%29.59 "Hg4 mi
2:20 AM39 °FFog.7 mph100%29.56 "Hg3 mi
1:50 AM39 °FPassing clouds.8 mph93%29.56 "Hg2 mi
1:20 AM39 °FPartly cloudy.7 mph93%29.59 "Hg2 mi
12:50 AM39 °FPartly cloudy.5 mph93%29.56 "Hg4 mi
12:20 AM39 °FPassing clouds.7 mph93%29.56 "HgN/A
11:20 PM
Dec 17
39 °FPartly cloudy.6 mph93%29.56 "HgN/A
10:50 PM39 °FPassing clouds.7 mph93%29.56 "HgN/A
10:20 PM39 °FPassing clouds.6 mph93%29.56 "HgN/A
9:50 PM39 °FPassing clouds.7 mph93%29.56 "HgN/A
9:20 PM39 °FPassing clouds.7 mph93%29.56 "HgN/A
8:50 PM39 °FPassing clouds.7 mph93%29.56 "HgN/A
8:20 PM39 °FPassing clouds.7 mph93%29.56 "HgN/A
7:50 PM39 °FPassing clouds.7 mph93%29.56 "HgN/A
7:20 PM39 °FPassing clouds.7 mph93%29.56 "HgN/A
6:50 PM39 °FPartly cloudy.7 mph93%29.53 "HgN/A
6:20 PM39 °FPassing clouds.8 mph93%29.53 "HgN/A
5:50 PM39 °FPassing clouds.5 mph93%29.53 "Hg6 mi
5:20 PM39 °FPassing clouds.5 mph93%29.53 "HgN/A
4:50 PM37 °FPassing clouds.7 mph93%29.53 "Hg5 mi
4:20 PM39 °FPassing clouds.7 mph93%29.56 "HgN/A
3:50 PM39 °FOvercast.8 mph87%29.56 "HgN/A
3:20 PM39 °FOvercast.12 mph87%29.56 "HgN/A
2:50 PM39 °FPartly sunny.13 mph87%29.53 "HgN/A
2:20 PM39 °FPartly sunny.13 mph87%29.53 "HgN/A
1:50 PM39 °FPartly sunny.15 mph87%29.53 "HgN/A
1:20 PM39 °FPartly sunny.14 mph93%29.53 "HgN/A
12:50 PM39 °FPartly sunny.14 mph87%29.56 "HgN/A
12:20 PM41 °FBroken clouds.13 mph87%29.56 "HgN/A
11:51 AM41 °FPartly sunny.12 mph87%29.59 "HgN/A
11:21 AM41 °FPartly sunny.10 mph81%29.59 "HgN/A
10:50 AM39 °FPartly sunny.13 mph93%29.59 "HgN/A
10:20 AM41 °FPartly sunny.17 mph87%29.59 "HgN/A
Weather by CustomWeather, © 2014

See weather overviewHow to use our weather pages